This is the latest recevied weather packets stored in our database for station/object WC4PEM-9. If no packets are shown the sender has not sent any weather packets the latest 1 day(s).
| Time | Temp. | Humidity | Pressure | Rain* | Wind** | Luminosity | Snow |
|---|---|---|---|---|---|---|---|
| 1778031138 | 22.78° C | 70% | 1015.3 hPa | 0 mm | 0.89 m/s, 142° | - | - |
| 1778030906 | 22.78° C | 70% | 1015.3 hPa | 0 mm | 0.89 m/s, 142° | - | - |
| 1778030606 | 22.78° C | 70% | 1015.2 hPa | 0 mm | 0.45 m/s, 265° | - | - |
| 1778030441 | 22.78° C | 70% | 1015.2 hPa | 0 mm | 0.89 m/s, 111° | - | - |
| 1778030306 | 22.78° C | 70% | 1015.2 hPa | 0 mm | 0.89 m/s, 111° | - | - |
| 1778030006 | 23.33° C | 69% | 1014.9 hPa | 0 mm | 0.89 m/s, 124° | - | - |
| 1778029706 | 23.33° C | 68% | 1015.1 hPa | 0 mm | 1.34 m/s, 158° | - | - |
| 1778029406 | 23.33° C | 68% | 1015 hPa | 0 mm | 1.34 m/s, 171° | - | - |
| 1778029243 | 23.33° C | 67% | 1014.9 hPa | 0 mm | 1.34 m/s, 151° | - | - |
| 1778029106 | 23.33° C | 67% | 1014.9 hPa | 0 mm | 1.34 m/s, 151° | - | - |
| 1778028806 | 23.33° C | 67% | 1014.6 hPa | 0 mm | 1.34 m/s, 93° | - | - |
| 1778028506 | 23.33° C | 68% | 1014.7 hPa | 0 mm | 1.34 m/s, 144° | - | - |
| 1778028206 | 23.89° C | 68% | 1014.7 hPa | 0 mm | 1.34 m/s, 137° | - | - |
| 1778027906 | 23.89° C | 68% | 1014.7 hPa | 0 mm | 1.34 m/s, 110° | - | - |
| 1778027606 | 23.89° C | 67% | 1014.6 hPa | 0 mm | 0.89 m/s, 131° | - | - |
| 1778027494 | 23.89° C | 67% | 1014.7 hPa | 0 mm | 0.89 m/s, 138° | - | - |
| 1778027306 | 23.89° C | 67% | 1014.7 hPa | 0 mm | 0.89 m/s, 138° | - | - |
| 1778027006 | 24.44° C | 66% | 1014.4 hPa | 0 mm | 0.89 m/s, 117° | - | - |
| 1778026706 | 24.44° C | 65% | 1014.4 hPa | 0 mm | 1.34 m/s, 165° | - | - |
| 1778026406 | 25° C | 65% | 1014.2 hPa | 0 mm | 1.34 m/s, 93° | - | - |
| 1778026106 | 25° C | 64% | 1014.3 hPa | 0 mm | 1.79 m/s, 34° | - | - |
| 1778025806 | 25° C | 64% | 1014 hPa | 0 mm | 1.34 m/s, 128° | - | - |
| 1778025506 | 25.56° C | 64% | 1014.2 hPa | 0 mm | 1.34 m/s, 124° | - | - |
| 1778025498 | 25.56° C | 63% | 1014.1 hPa | 0 mm | 1.79 m/s, 149° | - | - |
| 1778025206 | 25.56° C | 63% | 1014.1 hPa | 0 mm | 1.79 m/s, 149° | - | - |
* Rain latest hour (hover to see other rain measurements)
** Current wind speed in m/s (hover to see current wind gust speed)